Location: Most
(50.5133°N, 13.6207°E)
Time: 09:43:07
(UTC+02:00)

ISS - Pass Details

Date: 21 July 2018
Orbit: 402 x 408 km, 51.6° (Epoch: 17 July)

Event Time Altitude Azimuth Distance (km) Brightness Sun altitude
Rises 22:53:14 0° 241° (WSW) 2,316 0.1 -12.8°
Reaches altitude 10° 22:55:19 10° 237° (WSW) 1,459 -1.0 -13.0°
Maximum altitude 22:58:33 59° 158° (SSE) 474 -3.9 -13.3°
Drops below altitude 10° 23:01:47 10° 78° (ENE) 1,468 -1.2 -13.5°
Sets 23:03:54 0° 74° (ENE) 2,331 -0.1 -13.7°
